Simultaneous Nadir Overpasses (SNOs) Predictions

Prediction of SNOs between GOES-17 and NOAA-19 Satellite Orbit:

Table of predicted SNOs for the next 14.0 days since TLE Epoch: 4/9/2022
Index Date Time (GOES-17) GOES-17 Lat,Lon NOAA-19 Lat,Lon Distance(km) Time Diff (sec)
1 04/10/2022 05:01:05 -0.03,-137.20 -0.77,-140.34 359.21 80
2 04/11/2022 04:49:17 -0.03,-137.20 -0.08,-137.47 30.69 80
3 04/12/2022 04:34:47 -0.03,-137.19 0.55,-134.58 297.82 80
4 04/14/2022 16:55:22 0.03,-137.18 0.57,-139.45 260.13 80
5 04/15/2022 16:46:14 0.03,-137.17 -0.11,-136.57 67.85 80
6 04/16/2022 16:34:25 0.03,-137.16 -0.79,-133.70 395.62 80
7 04/18/2022 05:06:57 -0.03,-137.13 -1.05,-141.48 496.49 80
8 04/19/2022 04:55:09 -0.03,-137.12 -0.35,-138.61 169.29 80
9 04/20/2022 04:40:39 -0.03,-137.10 0.30,-135.72 157.70 80
10 04/21/2022 04:28:50 -0.02,-137.08 0.95,-132.83 484.42 80
11 04/22/2022 17:01:15 0.02,-137.04 0.86,-140.59 405.70 80
